Location: Clarion
(42.7316°N, 93.7330°W)
Time: 09:47:49
(UTC+00:00)

Cosmos 2237 Rocket - Pass Details

Date: 22 April 2026
Orbit: 833 x 850 km, 71.0° (Epoch: 17 May)

Event Time Altitude Azimuth Distance (km) Brightness Sun altitude
Rises 02:37:53 0° 232° (SW) 3,394 5.6 -16.3°
Reaches altitude 10° 02:40:35 10° 242° (WSW) 2,465 5.0 -16.7°
Maximum altitude 02:45:36 32° 305° (NW) 1,430 4.1 -17.4°
Drops below altitude 10° 02:50:40 10° 7° (N) 2,484 5.0 -18.2°
Sets 02:53:25 0° 18° (NNE) 3,424 5.6 -18.5°
